| time (UTC) | temp C | wind direction | speed KPH | gust KPH | rain 1hr cm | rain 24hr cm | rain mn cm | humidity % | barometer mb |
| 20260509053746 | 30 | 0.0 | 0.0 | 0.00 | 0.00 | 0.00 | 72 | 992.8 | |
| 20260509052741 | 30 | 0.0 | 0.0 | 0.00 | 0.00 | 0.00 | 70 | 992.8 | |
| 20260509051735 | 30 | 0.0 | 0.0 | 0.00 | 0.00 | 0.00 | 72 | 992.9 | |
| 20260509050730 | 30 | 0.0 | 0.0 | 0.00 | 0.00 | 0.00 | 73 | 993.2 | |
| 20260509045724 | 30 | 0.0 | 0.0 | 0.00 | 0.00 | 0.00 | 74 | 993.4 | |
| 20260509044718 | 30 | 0.0 | 0.0 | 0.00 | 0.00 | 0.00 | 76 | 993.6 | |
| 20260509043713 | 30 | 0.0 | 0.0 | 0.00 | 0.00 | 0.00 | 75 | 993.6 | |
| 20260509042707 | 30 | 0.0 | 0.0 | 0.00 | 0.00 | 0.00 | 76 | 993.8 | |
| 20260509041702 | 30 | 0.0 | 0.0 | 0.00 | 0.00 | 0.00 | 76 | 994.1 | |
| 20260509040656 | 30 | 0.0 | 0.0 | 0.00 | 0.00 | 0.00 | 76 | 994.2 | |
| 20260509035651 | 30 | 0.0 | 0.0 | 0.00 | 0.00 | 0.00 | 78 | 994.4 | |
| 20260509034645 | 29 | 0.0 | 0.0 | 0.00 | 0.00 | 0.00 | 80 | 994.5 | |
| 20260509033639 | 29 | 0.0 | 0.0 | 0.00 | 0.00 | 0.00 | 81 | 994.7 | |
| 20260509032634 | 29 | 0.0 | 0.0 | 0.00 | 0.00 | 0.00 | 83 | 994.9 | |
| 20260509031628 | 29 | 0.0 | 0.0 | 0.00 | 0.00 | 0.00 | 89 | 995.0 | |
| 20260509030623 | 29 | 0.0 | 0.0 | 0.00 | 0.00 | 0.00 | 91 | 995.2 | |
| 20260509025617 | 29 | 0.0 | 0.0 | 0.00 | 0.00 | 0.00 | 91 | 995.3 | |
| 20260509024611 | 28 | 0.0 | 0.0 | 0.00 | 0.00 | 0.00 | 91 | 995.4 | |
| 20260509023606 | 28 | 0.0 | 0.0 | 0.00 | 0.00 | 0.00 | 91 | 995.5 | |
| 20260509022600 | 28 | 0.0 | 0.0 | 0.00 | 0.00 | 0.00 | 90 | 995.5 | |
| 20260509021555 | 28 | 0.0 | 0.0 | 0.00 | 0.00 | 0.00 | 92 | 995.4 | |
| 20260509020549 | 28 | 0.0 | 0.0 | 0.00 | 0.00 | 0.00 | 93 | 995.4 | |
| 20260509015543 | 28 | 0.0 | 0.0 | 0.00 | 0.00 | 0.00 | 94 | 995.4 | |
| 20260509014538 | 28 | 0.0 | 0.0 | 0.00 | 0.00 | 0.00 | 95 | 995.3 | |
| 20260509013532 | 28 | 0.0 | 0.0 | 0.00 | 0.00 | 0.00 | 95 | 995.4 | |
| 20260509012527 | 28 | 0.0 | 0.0 | 0.00 | 0.00 | 0.00 | 95 | 995.3 | |
| 20260509011521 | 28 | 0.0 | 0.0 | 0.00 | 0.00 | 0.00 | 94 | 995.2 | |
| 20260509010515 | 28 | 0.0 | 0.0 | 0.00 | 0.00 | 0.00 | 95 | 995.3 | |
| 20260509005510 | 28 | 0.0 | 0.0 | 0.00 | 0.00 | 0.00 | 97 | 995.2 | |
| 20260509004504 | 28 | 0.0 | 0.0 | 0.00 | 0.00 | 0.00 | 97 | 995.1 | |
| 20260509003459 | 27 | 0.0 | 0.0 | 0.00 | 0.00 | 0.00 | 97 | 995.1 | |
| 20260509002453 | 28 | 0.0 | 0.0 | 0.00 | 0.00 | 0.00 | 98 | 995.0 | |
| 20260509001448 | 28 | 0.0 | 0.0 | 0.00 | 0.00 | 0.00 | 98 | 994.9 | |
| 20260509000442 | 28 | 0.0 | 0.0 | 0.00 | 0.00 | 0.00 | 99 | 994.6 | |
| 20260508235437 | 28 | 0.0 | 0.0 | 0.00 | 0.00 | 0.00 | 99 | 994.6 | |
| 20260508234431 | 28 | 0.0 | 0.0 | 0.00 | 0.00 | 0.00 | 98 | 994.5 | |
| 20260508233425 | 28 | 0.0 | 0.0 | 0.00 | 0.00 | 0.00 | 98 | 994.5 | |
| 20260508232420 | 28 | 0.0 | 0.0 | 0.00 | 0.00 | 0.00 | 97 | 994.3 | |
| 20260508231414 | 28 | 0.0 | 0.0 | 0.00 | 0.00 | 0.00 | 97 | 994.1 | |
| 20260508230408 | 28 | 0.0 | 0.0 | 0.00 | 0.00 | 0.00 | 97 | 993.9 | |
| 20260508225403 | 28 | 0.0 | 0.0 | 0.00 | 0.00 | 0.00 | 97 | 993.8 | |
| 20260508224357 | 28 | 0.0 | 0.0 | 0.00 | 0.00 | 0.00 | 96 | 993.7 | |
| 20260508223352 | 28 | 0.0 | 0.0 | 0.00 | 0.00 | 0.00 | 96 | 993.7 | |
| 20260508222346 | 28 | 0.0 | 0.0 | 0.00 | 0.00 | 0.00 | 96 | 993.6 | |
| 20260508221341 | 28 | 0.0 | 0.0 | 0.00 | 0.00 | 0.00 | 95 | 993.5 | |
| 20260508220335 | 28 | 0.0 | 0.0 | 0.00 | 0.00 | 0.00 | 95 | 993.4 | |
| 20260508215329 | 28 | 0.0 | 0.0 | 0.00 | 0.00 | 0.00 | 95 | 993.4 | |
| 20260508214324 | 28 | 0.0 | 0.0 | 0.00 | 0.00 | 0.00 | 95 | 993.2 | |
| 20260508213318 | 28 | 0.0 | 0.0 | 0.00 | 0.00 | 0.00 | 94 | 993.1 | |
| 20260508212313 | 28 | 0.0 | 0.0 | 0.00 | 0.00 | 0.00 | 93 | 993.0 | |
| 20260508211307 | 28 | 0.0 | 0.0 | 0.00 | 0.00 | 0.00 | 93 | 992.9 | |
| 20260508210302 | 28 | 0.0 | 0.0 | 0.00 | 0.00 | 0.00 | 92 | 992.8 | |
| 20260508205256 | 28 | 0.0 | 0.0 | 0.00 | 0.00 | 0.00 | 92 | 992.6 | |
| 20260508204250 | 28 | 0.0 | 0.0 | 0.00 | 0.00 | 0.00 | 92 | 992.6 | |
| 20260508203245 | 28 | 0.0 | 0.0 | 0.00 | 0.00 | 0.00 | 91 | 992.6 | |
| 20260508202239 | 28 | 0.0 | 0.0 | 0.00 | 0.00 | 0.00 | 91 | 992.6 | |
| 20260508201234 | 28 | 0.0 | 0.0 | 0.00 | 0.00 | 0.00 | 90 | 992.6 | |
| 20260508200228 | 28 | 0.0 | 0.0 | 0.00 | 0.00 | 0.00 | 90 | 992.6 | |
| 20260508195223 | 28 | 0.0 | 0.0 | 0.00 | 0.00 | 0.00 | 90 | 992.7 | |
| 20260508194217 | 28 | 0.0 | 0.0 | 0.00 | 0.00 | 0.00 | 89 | 992.7 | |
| 20260508193212 | 28 | 0.0 | 0.0 | 0.00 | 0.00 | 0.00 | 87 | 992.8 | |
| 20260508192206 | 28 | 0.0 | 0.0 | 0.00 | 0.00 | 0.00 | 85 | 992.8 | |
| 20260508191200 | 28 | 0.0 | 0.0 | 0.00 | 0.00 | 0.00 | 82 | 992.9 | |
| 20260508190155 | 28 | 0.0 | 0.0 | 0.00 | 0.00 | 0.00 | 83 | 992.9 | |
| 20260508185149 | 28 | 0.0 | 0.0 | 0.00 | 0.00 | 0.00 | 82 | 993.0 | |
| 20260508184143 | 28 | 0.0 | 0.0 | 0.00 | 0.00 | 0.00 | 81 | 993.1 | |
| 20260508183138 | 28 | 0.0 | 0.0 | 0.00 | 0.00 | 0.00 | 82 | 993.1 | |
| 20260508182132 | 28 | 0.0 | 0.0 | 0.00 | 0.00 | 0.00 | 81 | 993.1 | |
| 20260508181127 | 28 | 0.0 | 0.0 | 0.00 | 0.00 | 0.00 | 82 | 993.2 | |
| 20260508180121 | 28 | 0.0 | 0.0 | 0.00 | 0.00 | 0.00 | 81 | 993.2 | |
| 20260508175116 | 28 | 0.0 | 0.0 | 0.00 | 0.00 | 0.00 | 80 | 993.4 | |
| 20260508174110 | 28 | 0.0 | 0.0 | 0.00 | 0.00 | 0.00 | 81 | 993.6 | |
| 20260508173104 | 28 | 0.0 | 0.0 | 0.00 | 0.00 | 0.00 | 78 | 993.8 | |
| 20260508172059 | 28 | 0.0 | 0.0 | 0.00 | 0.00 | 0.00 | 79 | 993.9 | |
| 20260508171053 | 28 | 0.0 | 0.0 | 0.00 | 0.00 | 0.00 | 80 | 994.0 | |
| 20260508170047 | 28 | 0.0 | 0.0 | 0.00 | 0.00 | 0.00 | 80 | 994.0 | |
| 20260508165042 | 28 | 0.0 | 0.0 | 0.00 | 0.00 | 0.00 | 81 | 994.1 | |
| 20260508164036 | 28 | 0.0 | 0.0 | 0.00 | 0.00 | 0.00 | 80 | 994.3 | |
| 20260508163031 | 28 | 0.0 | 0.0 | 0.00 | 0.00 | 0.00 | 79 | 994.4 | |
| 20260508162025 | 28 | 0.0 | 0.0 | 0.00 | 0.00 | 0.00 | 78 | 994.5 | |
| 20260508161020 | 28 | 0.0 | 0.0 | 0.00 | 0.00 | 0.00 | 77 | 994.5 | |
| 20260508160014 | 28 | 0.0 | 0.0 | 0.00 | 0.00 | 0.00 | 76 | 994.4 | |
| 20260508155008 | 28 | 0.0 | 0.0 | 0.00 | 0.00 | 0.00 | 76 | 994.4 | |
| 20260508154003 | 28 | 0.0 | 0.0 | 0.00 | 0.00 | 0.00 | 77 | 994.2 | |
| 20260508152957 | 29 | 0.0 | 0.0 | 0.00 | 0.00 | 0.00 | 77 | 994.1 | |
| 20260508151951 | 29 | 0.0 | 0.0 | 0.00 | 0.00 | 0.00 | 76 | 994.1 | |
| 20260508150946 | 29 | 0.0 | 0.0 | 0.00 | 0.00 | 0.00 | 75 | 993.8 | |
| 20260508145925 | 29 | 0.0 | 0.0 | 0.00 | 0.00 | 0.00 | 75 | 993.7 | |
| 20260508144920 | 29 | 0.0 | 0.0 | 0.00 | 0.00 | 0.00 | 73 | 993.4 | |
| 20260508143914 | 29 | 0.0 | 0.0 | 0.00 | 0.00 | 0.00 | 73 | 993.2 | |
| 20260508142908 | 29 | 0.0 | 0.0 | 0.00 | 0.00 | 0.00 | 72 | 993.3 | |
| 20260508141903 | 29 | 0.0 | 0.0 | 0.00 | 0.00 | 0.00 | 70 | 993.1 | |
| 20260508140912 | 29 | 0.0 | 0.0 | 0.00 | 0.00 | 0.00 | 69 | 993.0 | |
| 20260508135849 | 29 | 0.0 | 0.0 | 0.00 | 0.00 | 0.00 | 68 | 992.7 | |
| 20260508134843 | 29 | 0.0 | 0.0 | 0.00 | 0.00 | 0.00 | 68 | 992.4 | |
| 20260508133838 | 29 | 0.0 | 0.0 | 0.00 | 0.00 | 0.00 | 69 | 992.1 | |
| 20260508132832 | 29 | 0.0 | 0.0 | 0.00 | 0.00 | 0.00 | 69 | 992.1 | |
| 20260508131826 | 30 | 0.0 | 0.0 | 0.00 | 0.00 | 0.00 | 68 | 992.0 | |
| 20260508130821 | 29 | 0.0 | 0.0 | 0.00 | 0.00 | 0.00 | 67 | 991.7 | |
| 20260508125815 | 30 | 0.0 | 0.0 | 0.00 | 0.00 | 0.00 | 65 | 991.5 | |
| 20260508124810 | 30 | 0.0 | 0.0 | 0.00 | 0.00 | 0.00 | 67 | 991.1 | |
| 20260508123804 | 30 | 0.0 | 0.0 | 0.00 | 0.00 | 0.00 | 66 | 991.1 | |
| 20260508122759 | 30 | 0.0 | 0.0 | 0.00 | 0.00 | 0.00 | 65 | 990.9 | |
| 20260508121753 | 30 | 0.0 | 0.0 | 0.00 | 0.00 | 0.00 | 64 | 991.0 | |
| 20260508120747 | 30 | 0.0 | 0.0 | 0.00 | 0.00 | 0.00 | 63 | 990.8 | |
| 20260508115742 | 30 | 0.0 | 0.0 | 0.00 | 0.00 | 0.00 | 63 | 990.8 | |
| 20260508114736 | 30 | 0.0 | 0.0 | 0.00 | 0.00 | 0.00 | 63 | 990.9 | |
| 20260508113731 | 30 | 0.0 | 0.0 | 0.00 | 0.00 | 0.00 | 61 | 990.8 | |
| 20260508112725 | 30 | 0.0 | 0.0 | 0.00 | 0.00 | 0.00 | 61 | 990.7 | |
| 20260508111719 | 30 | 0.0 | 0.0 | 0.00 | 0.00 | 0.00 | 58 | 990.6 | |
| 20260508110714 | 31 | 0.0 | 0.0 | 0.00 | 0.00 | 0.00 | 59 | 990.6 | |
| 20260508105708 | 31 | 0.0 | 0.0 | 0.00 | 0.00 | 0.00 | 59 | 990.4 | |
| 20260508104703 | 31 | 0.0 | 0.0 | 0.00 | 0.00 | 0.00 | 57 | 990.3 | |
| 20260508103657 | 31 | 0.0 | 0.0 | 0.00 | 0.00 | 0.00 | 56 | 990.2 | |
| 20260508102652 | 31 | 0.0 | 0.0 | 0.00 | 0.00 | 0.00 | 55 | 990.1 | |
| 20260508101646 | 31 | 0.0 | 0.0 | 0.00 | 0.00 | 0.00 | 55 | 989.8 | |
| 20260508100640 | 31 | 0.0 | 0.0 | 0.00 | 0.00 | 0.00 | 54 | 989.6 | |
| 20260508095635 | 31 | 0.0 | 0.0 | 0.00 | 0.00 | 0.00 | 53 | 989.4 | |
| 20260508094629 | 31 | 0.0 | 0.0 | 0.00 | 0.00 | 0.00 | 64 | 989.5 | |
| 20260508093624 | 31 | 0.0 | 0.0 | 0.00 | 0.00 | 0.00 | 65 | 989.6 | |
| 20260508092618 | 31 | 0.0 | 0.0 | 0.00 | 0.00 | 0.00 | 66 | 988.7 | |
| 20260508091613 | 31 | 0.0 | 0.0 | 0.00 | 0.00 | 0.00 | 66 | 988.5 | |
| 20260508090607 | 31 | 0.0 | 0.0 | 0.00 | 0.00 | 0.00 | 65 | 988.6 | |
| 20260508085601 | 31 | 0.0 | 0.0 | 0.00 | 0.00 | 0.00 | 66 | 988.5 | |
| 20260508084556 | 31 | 0.0 | 0.0 | 0.00 | 0.00 | 0.00 | 66 | 988.5 | |
| 20260508083550 | 31 | 0.0 | 0.0 | 0.00 | 0.00 | 0.00 | 66 | 988.4 | |
| 20260508082545 | 32 | 0.0 | 0.0 | 0.00 | 0.00 | 0.00 | 67 | 988.6 | |
| 20260508081539 | 32 | 0.0 | 0.0 | 0.00 | 0.00 | 0.00 | 67 | 988.7 | |
| 20260508080533 | 32 | 0.0 | 0.0 | 0.00 | 0.00 | 0.00 | 67 | 988.9 | |
| 20260508075528 | 31 | 0.0 | 0.0 | 0.00 | 0.00 | 0.00 | 66 | 989.0 | |
| 20260508074522 | 31 | 0.0 | 0.0 | 0.00 | 0.00 | 0.00 | 64 | 989.2 | |
| 20260508073516 | 31 | 0.0 | 0.0 | 0.00 | 0.00 | 0.00 | 63 | 989.3 | |
| 20260508072511 | 31 | 0.0 | 0.0 | 0.00 | 0.00 | 0.00 | 63 | 989.4 | |
| 20260508071505 | 31 | 0.0 | 0.0 | 0.00 | 0.00 | 0.00 | 64 | 989.6 | |
| 20260508070500 | 31 | 0.0 | 0.0 | 0.00 | 0.00 | 0.00 | 63 | 989.8 | |
| 20260508065454 | 31 | 0.0 | 0.0 | 0.00 | 0.00 | 0.00 | 63 | 990.1 | |
| 20260508064449 | 31 | 0.0 | 0.0 | 0.00 | 0.00 | 0.00 | 63 | 990.3 | |
| 20260508063443 | 31 | 0.0 | 0.0 | 0.00 | 0.00 | 0.00 | 61 | 990.5 | |
| 20260508062437 | 31 | 0.0 | 0.0 | 0.00 | 0.00 | 0.00 | 64 | 990.7 | |
| 20260508061432 | 31 | 0.0 | 0.0 | 0.00 | 0.00 | 0.00 | 63 | 990.9 | |
| 20260508060426 | 31 | 0.0 | 0.0 | 0.00 | 0.00 | 0.00 | 63 | 990.9 | |
| 20260508055420 | 31 | 0.0 | 0.0 | 0.00 | 0.00 | 0.00 | 63 | 991.1 | |
| 20260508054415 | 31 | 0.0 | 0.0 | 0.00 | 0.00 | 0.00 | 63 | 991.4 |